Location: Unspecified
(0.0000°N, 0.0000°E)
Time: 12:36:12
(UTC+01:00)

Hubble Space Telescope - Visible Passes

Search period start: 17 December 2018 00:00
Search period end: 27 December 2018 00:00
Orbit: 537 x 540 km, 28.5° (Epoch: 17 December)

Date Brightness Start Highest point End Pass type
(mag) Time Alt. Az. Time Alt. Az. Time Alt. Az.
17 Dec 1.7 05:32:40 31° N 05:33:52 39° NNE 05:37:46 10° E visible
18 Dec 1.0 05:22:58 52° N 05:23:26 57° NNE 05:27:31 10° ESE visible
19 Dec 0.8 05:13:15 77° E 05:13:15 77° E 05:17:10 10° ESE visible
20 Dec 1.5 05:03:31 49° SSE 05:03:31 49° SSE 05:06:43 10° SE visible
21 Dec 2.4 04:53:44 30° SSE 04:53:44 30° SSE 04:56:09 10° SE visible
22 Dec 3.1 04:43:55 20° SSE 04:43:55 20° SSE 04:45:29 10° SE visible
23 Dec 3.6 04:34:04 13° SSE 04:34:04 13° SSE 04:34:41 10° SSE visible
